GFSCGP_sfc_wetblb_195.txt.gz
Wetbulb
46.89 41.86 38.95 42.34 44.72 43.07 41.71 41.28 39.63 42.40 45.71 43.47 43.57 44.41 46.65 49.27 49.65 49.42 50.13 50.80 51.35 52.33 54.98 56.25 56.87 57.51 58.13 58.82 58.89 59.19 59.59 61.08 62.27 63.44 63.70 64.57 64.72 66.05 64.85 65.68 66.24 66.69 67.00 66.68
42.27 37.77 42.51 44.13 44.91 43.11 41.34 39.28 39.09 42.14 44.32 42.38 41.60 41.05 44.65 46.32 46.71 47.86 48.12 48.40 48.97 49.83 50.82 52.59 54.36 55.89 56.27 56.85 57.85 58.37 58.74 59.71 61.19 62.51 63.55 64.13 64.48 65.21 65.31 65.85 64.78 65.01 65.60 66.24
37.01 39.55 43.15 42.50 42.97 41.40 40.65 38.95 39.21 38.67 42.19 43.37 41.17 38.63 40.86 44.42 46.47 47.50 47.67 48.72 48.73 48.98 49.72 51.41 52.74 54.02 55.19 55.86 57.31 57.49 58.45 59.23 59.82 61.66 62.15 63.08 63.89 64.70 63.88 64.46 65.21 65.61 64.70 64.65
39.08 42.87 40.39 39.76 38.77 41.14 36.61 43.01 41.65 39.93 37.69 33.25 40.66 32.45 39.31 41.81 42.82 44.63 45.99 47.11 47.81 49.33 50.44 50.96 51.37 51.89 53.12 54.52 57.80 56.81 56.93 57.12 58.30 59.32 59.90 60.65 60.74 60.40 62.29 63.35 64.37 64.72 65.16 64.79
37.09 39.20 38.84 37.77 38.75 41.72 37.96 42.10 40.08 39.18 37.08 36.52 36.78 33.31 38.07 41.47 39.94 42.55 45.35 47.17 47.37 48.52 49.11 49.01 50.05 50.81 51.42 51.49 53.24 54.97 55.38 55.83 56.54 58.29 59.08 59.95 60.18 61.71 62.47 62.78 62.06 62.71 63.53 64.16
40.15 44.23 42.25 40.92 42.16 42.53 42.89 40.35 39.74 39.34 36.91 29.45 34.75 34.57 35.45 39.05 40.59 42.13 45.55 46.84 47.57 48.12 48.64 48.84 48.47 49.52 50.41 52.16 53.32 54.44 54.90 55.44 57.74 57.80 58.25 59.05 59.74 60.23 60.42 60.86 60.71 61.47 62.33 62.67
37.19 38.71 42.44 43.68 39.21 42.16 40.87 36.87 30.10 27.97 28.29 26.67 35.99 34.09 36.80 41.60 43.33 43.41 44.28 46.32 48.08 49.03 48.51 48.67 49.03 49.80 50.73 50.93 51.15 51.18 51.15 50.55 53.22 55.08 57.25 58.35 58.99 59.65 59.70 59.69 59.31 58.64 58.75 59.48
31.31 28.84 38.24 42.39 39.81 37.15 37.57 36.80 30.14 23.42 26.24 30.29 34.28 29.79 36.62 43.45 44.74 45.63 45.64 46.30 47.11 47.77 48.69 48.89 48.98 49.33 48.89 48.73 49.36 49.58 48.44 47.76 49.06 49.87 49.98 50.90 51.08 51.79 52.11 51.79 51.75 52.16 52.55 53.02
31.97 32.19 40.48 41.79 42.75 41.62 37.15 34.43 38.86 31.55 29.34 27.94 32.75 36.42 40.91 43.39 43.38 44.32 44.37 44.58 45.67 47.47 48.49 48.94 48.00 47.81 47.52 46.92 46.27 46.89 46.65 46.19 46.38 47.08 48.25 48.34 48.41 48.80 48.82 49.60 50.26 50.21 50.79 50.15
37.00 30.18 36.36 39.26 42.42 42.03 39.81 41.55 31.32 33.02 24.63 23.26 31.06 32.55 34.32 38.18 40.07 42.53 43.87 44.42 45.67 46.71 47.75 49.00 48.41 46.91 46.31 45.81 45.85 46.02 46.12 45.27 45.30 45.96 46.15 46.21 45.88 46.26 46.76 47.60 46.80 46.75 47.16 47.62
38.17 34.27 32.23 37.34 35.65 35.14 35.98 35.05 35.82 35.89 32.93 26.43 25.59 31.92 40.58 40.43 41.85 42.59 43.95 44.72 45.68 46.41 46.63 47.83 48.72 47.12 46.32 45.29 45.21 44.92 44.70 44.52 44.42 44.73 45.06 44.94 44.34 44.44 44.92 44.72 44.61 44.54 45.30 45.41
38.23 34.99 29.74 31.91 37.29 38.92 39.24 35.96 36.39 29.76 28.23 31.99 30.70 31.15 42.07 42.81 43.37 43.38 43.80 45.10 46.21 46.59 47.12 47.68 48.27 46.34 44.67 44.39 43.66 43.59 43.35 43.32 43.06 43.25 43.36 42.74 42.77 43.01 43.10 42.96 43.06 43.71 43.73 44.75
38.22 32.89 28.52 29.19 33.20 36.68 35.52 37.63 37.87 37.30 34.73 29.91 27.22 31.83 42.24 43.71 43.29 44.14 43.87 45.57 46.89 47.31 47.38 47.82 47.68 45.37 44.37 44.06 43.11 42.59 42.29 41.79 41.59 42.14 42.23 41.67 41.42 41.75 41.77 41.64 42.05 42.57 42.66 43.18
40.91 35.20 32.49 28.59 31.48 35.46 31.86 34.84 37.44 35.59 30.67 30.87 31.81 33.79 38.60 40.54 41.45 43.24 44.55 45.63 46.18 46.80 47.28 47.63 47.94 46.65 45.70 44.96 44.14 42.81 41.64 41.10 40.45 40.22 40.27 40.04 40.05 40.29 40.81 41.16 41.45 41.63 42.00 42.02
39.31 31.87 33.76 35.43 34.74 35.10 34.48 34.45 35.22 33.67 35.19 31.02 33.96 34.47 38.20 40.65 42.05 43.28 44.39 44.73 44.59 45.02 46.09 47.18 47.76 48.27 47.21 45.59 44.43 43.06 42.28 40.46 39.87 39.59 39.78 39.38 39.48 40.01 40.33 40.37 40.60 41.00 41.12 41.29
39.52 32.18 33.82 29.27 34.97 33.93 31.23 34.07 35.09 35.68 36.19 35.49 36.29 35.47 42.27 43.41 44.39 43.44 43.62 44.29 43.96 44.71 45.67 46.94 48.11 47.87 47.17 45.93 44.61 42.71 41.50 40.34 39.68 39.54 39.03 38.33 38.30 38.39 38.43 38.54 38.69 39.10 39.48 39.97
35.57 32.96 29.95 26.62 32.50 32.65 27.91 31.92 33.63 34.66 36.62 36.21 32.05 37.49 41.84 41.42 41.91 42.51 43.34 43.84 44.08 44.71 45.68 46.38 47.44 48.07 46.84 45.90 44.27 42.39 41.16 40.08 38.53 38.64 37.58 36.56 35.93 35.85 35.86 36.03 36.71 36.93 37.32 38.30
34.14 32.87 32.89 27.37 28.22 19.78 31.71 38.18 38.05 35.84 36.97 38.40 38.43 39.73 40.91 41.38 42.66 43.55 44.72 43.97 44.16 45.07 45.62 46.59 47.45 48.88 49.62 47.62 44.35 42.91 41.05 38.49 37.94 37.14 35.23 34.02 33.60 33.34 33.31 33.34 33.57 33.84 34.43 34.06
38.74 34.24 29.55 25.81 25.13 28.66 31.52 34.21 34.21 32.96 33.21 39.14 38.09 39.61 40.81 41.71 41.90 41.82 44.71 45.22 45.49 45.82 46.47 46.98 48.12 48.61 49.34 45.61 42.84 39.67 37.64 37.30 36.37 34.43 33.16 31.89 31.10 30.33 30.44 30.61 30.96 31.46 31.50 32.01
36.48 36.83 30.91 28.41 22.95 20.21 31.23 37.19 39.86 38.58 27.96 38.94 39.34 39.31 39.90 40.88 35.31 39.68 44.38 45.46 45.73 46.16 46.35 45.41 43.23 41.78 42.88 40.77 38.73 36.89 35.95 34.89 33.52 32.53 30.81 29.45 28.65 28.75 29.13 29.61 29.55 30.00 30.10 30.27
29.22 30.45 27.20 27.77 25.04 29.08 36.10 38.22 40.18 26.42 29.45 39.53 40.77 40.85 40.58 38.78 41.12 43.89 44.99 44.86 43.36 42.68 41.04 39.62 38.82 38.41 38.52 37.03 36.27 35.33 34.65 32.96 31.13 28.67 27.17 26.38 26.68 26.50 28.02 27.82 27.83 27.97 28.49 30.08
27.67 26.51 27.09 28.64 25.35 22.75 38.92 37.42 31.48 37.04 40.53 40.80 41.01 41.52 40.68 41.45 42.17 42.58 42.99 42.51 41.85 39.68 36.52 35.76 35.13 32.07 32.19 33.64 33.97 32.69 30.52 26.66 25.87 25.44 24.82 23.88 24.13 25.14 25.66 25.23 26.71 27.04 28.77 29.49
27.27 32.53 30.75 31.44 31.13 39.27 41.50 39.88 42.33 42.25 41.08 41.33 40.43 41.58 41.11 39.95 39.73 40.49 40.60 41.21 39.06 37.17 33.30 32.07 30.35 27.43 27.44 28.66 30.47 27.07 23.49 23.35 21.94 22.05 21.24 21.83 22.65 23.13 23.48 23.81 24.44 25.74 27.35 27.30
31.55 35.81 31.49 32.17 35.46 37.08 39.26 39.94 39.63 40.03 40.05 41.45 41.40 41.24 40.22 38.55 38.70 37.04 37.36 35.14 32.45 31.43 29.21 27.86 25.90 23.66 21.31 22.03 21.96 20.74 19.51 19.20 20.00 20.36 20.07 20.94 21.36 21.18 22.17 23.21 23.69 23.84 23.88 23.66
33.43 33.18 31.14 30.96 34.09 36.32 37.01 38.11 38.85 38.52 38.80 37.96 37.67 37.68 37.80 37.83 36.40 36.53 36.07 32.65 30.83 29.16 26.83 25.76 24.23 21.87 18.85 18.34 16.06 15.54 15.51 17.53 18.49 19.00 19.06 19.42 19.97 19.45 20.08 20.95 21.31 20.87 22.32 22.23
33.55 31.05 29.44 28.79 35.14 35.19 35.67 38.59 38.71 37.35 36.55 37.65 36.43 35.82 35.48 35.10 35.45 35.39 32.88 30.62 28.59 26.15 24.93 23.15 21.40 18.36 16.38 14.26 11.95 10.75 11.54 14.58 18.06 17.54 17.67 16.01 17.71 17.88 18.37 18.46 19.19 21.40 20.71 21.50

GFSCGP_sfc_wetblb_198.txt.gz
Wetbulb
45.47 40.34 36.64 40.42 42.53 41.94 39.19 37.46 36.16 39.05 43.60 40.80 40.31 40.75 43.38 45.77 45.44 45.03 46.13 47.22 47.99 49.06 51.15 52.04 52.98 52.99 53.11 53.87 54.24 54.63 54.87 56.32 59.05 59.86 60.03 60.97 61.56 62.18 63.37 63.59 63.56 63.82 63.89 64.06
41.25 35.78 41.29 43.48 43.79 42.17 40.07 36.47 35.05 39.05 43.20 40.21 38.63 38.00 40.75 42.67 43.09 44.00 44.63 45.22 45.98 46.36 47.37 48.13 48.99 50.53 51.80 52.27 53.28 53.96 55.06 55.95 57.03 58.32 59.59 60.21 60.80 61.54 62.36 62.88 62.76 63.07 62.99 63.41
37.16 39.47 42.21 42.02 40.57 39.87 39.26 37.24 36.73 35.99 40.11 41.04 37.68 34.77 38.58 41.90 43.43 44.96 45.74 46.05 45.94 45.54 45.13 46.07 47.65 47.73 49.75 50.31 51.39 53.44 54.17 54.74 55.51 57.97 58.82 59.49 59.61 60.19 60.06 60.63 61.53 62.54 62.58 62.23
38.20 41.77 39.94 38.84 38.61 41.29 36.32 41.45 40.39 39.25 35.24 27.69 35.75 24.89 33.73 37.57 39.23 41.50 42.22 42.26 43.04 43.81 45.00 46.05 46.37 46.71 47.76 49.36 50.37 51.47 52.91 53.62 54.60 55.34 56.54 56.86 56.85 56.73 59.11 60.33 60.80 62.03 63.03 62.14
36.32 37.48 37.05 37.01 37.77 40.79 37.41 40.99 39.31 37.85 33.35 31.14 29.73 26.41 31.77 35.22 35.19 39.00 40.45 41.65 43.41 44.06 45.03 45.11 45.57 46.99 47.11 47.80 48.14 49.76 50.86 51.32 52.34 53.37 53.77 54.49 55.59 57.06 58.45 58.93 58.71 59.73 60.77 61.82
38.85 43.09 40.35 38.94 40.83 41.14 42.26 38.50 37.79 36.93 33.24 22.67 30.71 28.99 28.31 32.84 35.63 37.54 41.44 41.60 43.68 42.49 43.55 45.29 45.94 47.02 47.52 48.64 49.10 49.67 50.61 52.50 54.42 52.72 53.35 54.24 55.18 55.99 56.15 56.73 56.86 57.57 58.32 59.16
36.48 37.67 41.20 42.30 37.57 40.38 39.71 34.99 26.02 24.32 24.56 21.05 31.52 28.47 31.66 36.55 38.45 39.16 41.02 41.23 42.15 43.23 43.60 44.75 44.41 45.59 46.94 46.48 46.43 46.89 46.98 46.97 48.86 49.07 49.61 51.19 52.66 53.97 55.57 52.71 51.32 51.42 51.93 52.44
28.99 27.30 37.40 41.45 38.33 35.60 36.17 35.14 27.72 17.25 21.15 23.09 30.58 24.78 31.54 38.88 41.36 42.20 42.53 41.47 43.09 42.69 44.26 44.66 45.02 44.91 44.54 44.76 44.86 44.66 44.36 44.20 45.61 46.51 46.80 47.45 47.75 48.14 48.30 48.64 48.30 48.07 48.58 49.10
30.54 30.49 39.21 40.53 41.20 40.00 35.52 31.37 36.96 28.55 23.67 21.63 26.58 31.46 37.04 39.35 39.67 40.51 39.53 40.72 41.14 43.58 44.17 44.71 43.97 43.83 43.46 42.47 42.44 42.92 43.24 43.19 43.83 44.68 45.21 44.82 45.03 45.51 45.71 46.43 46.57 46.05 46.40 47.16
35.40 28.01 36.11 38.67 40.31 40.17 37.48 39.61 29.94 29.69 17.39 17.15 23.57 24.76 28.19 34.34 36.93 39.52 39.49 39.81 41.04 42.05 43.34 45.53 43.98 42.85 42.53 41.76 42.05 42.36 42.82 42.22 42.81 43.17 43.04 43.04 42.79 43.21 43.84 44.11 43.20 43.21 43.88 44.19
36.58 33.58 30.99 36.85 35.19 33.49 34.82 33.62 34.60 34.06 28.83 23.12 20.71 24.02 34.84 36.14 37.75 38.42 39.70 41.22 40.12 40.16 42.05 43.66 44.71 43.47 42.13 41.34 41.25 40.99 41.12 41.36 41.29 41.93 42.06 41.64 41.38 41.86 42.14 41.74 41.70 41.91 42.80 43.11
36.91 34.45 27.83 31.63 35.74 38.19 37.79 34.36 34.91 26.70 25.61 26.95 26.64 25.33 38.25 38.38 39.03 39.85 39.77 41.69 40.47 41.22 42.09 43.18 44.30 42.76 41.69 40.90 40.35 40.29 40.24 40.19 40.17 40.59 40.39 40.18 40.57 40.77 40.29 40.21 40.55 41.44 41.23 42.52
37.15 31.74 25.87 28.34 31.95 35.11 33.81 35.92 36.38 35.46 31.45 26.42 23.13 26.01 39.04 39.60 38.42 39.68 39.78 40.98 42.75 42.38 41.46 43.21 43.81 42.58 41.36 40.67 39.91 39.13 39.31 39.05 39.19 39.51 39.25 38.97 38.83 38.96 38.98 39.24 39.95 40.54 40.45 40.77
40.24 33.63 29.39 24.66 28.02 32.89 29.82 33.58 35.96 34.27 28.79 27.78 28.63 29.77 33.83 36.66 37.73 38.66 39.54 39.03 40.39 40.98 41.99 41.88 42.75 43.49 42.33 41.28 40.15 39.16 38.63 38.56 38.13 38.14 38.12 37.74 37.76 38.36 38.71 39.30 39.47 39.72 40.12 39.71
38.24 28.63 31.48 33.20 32.76 32.52 31.38 32.06 34.19 32.60 33.17 29.20 31.63 31.80 35.81 36.77 36.85 37.60 39.64 41.16 40.43 40.99 41.63 41.57 41.83 42.21 42.76 41.46 40.34 39.47 38.14 37.58 37.88 37.49 37.47 37.51 37.92 38.48 38.66 38.46 38.37 38.60 38.68 38.76
37.72 25.94 30.80 24.89 33.00 30.99 28.67 31.94 33.78 34.32 34.71 34.02 34.05 32.72 39.19 39.17 39.78 38.93 40.81 40.54 40.29 40.99 41.80 42.22 42.66 42.43 43.51 42.72 40.93 40.01 38.62 37.59 37.45 37.15 36.99 37.09 37.12 37.10 36.74 36.61 36.34 36.79 37.00 37.33
33.35 31.71 28.50 22.43 29.54 28.39 25.58 29.30 31.61 32.34 35.13 34.54 30.30 35.41 38.99 37.49 38.94 39.41 39.68 40.28 39.93 40.32 41.43 41.91 41.94 41.73 42.76 42.79 41.75 39.68 38.12 37.60 36.51 36.45 36.64 35.80 35.20 34.76 34.28 34.17 34.25 33.70 34.01 34.62
32.69 31.07 29.19 21.08 20.83 18.89 28.13 35.12 35.41 33.18 34.42 35.77 35.91 37.05 38.35 38.63 39.98 40.07 41.08 40.17 40.90 41.05 40.51 41.45 41.68 41.52 41.97 43.00 41.29 39.56 37.92 36.56 35.51 35.49 34.28 32.93 32.21 31.89 31.23 31.26 30.80 30.90 31.30 31.10
37.24 32.95 28.40 24.75 21.06 24.26 27.98 31.29 31.71 31.23 31.36 37.06 36.24 37.72 38.52 38.22 36.79 36.66 40.29 40.62 40.37 40.75 41.55 41.63 41.28 41.66 41.77 42.00 40.01 37.11 35.33 34.37 34.09 33.31 31.32 30.08 29.61 28.93 28.74 28.49 28.03 28.38 27.92 28.56
35.07 35.16 29.21 27.23 21.53 18.10 28.15 34.30 35.36 34.81 23.55 35.84 36.56 35.96 35.93 35.78 30.62 34.56 39.90 39.82 39.34 39.76 40.85 38.88 37.55 37.14 37.91 37.21 35.34 34.02 32.73 32.29 31.82 30.89 29.15 28.37 27.96 27.82 27.52 27.48 27.19 27.47 27.67 28.60
28.29 29.86 27.25 26.64 24.13 24.07 31.70 32.86 35.91 23.41 26.62 35.85 36.67 37.00 36.72 34.19 35.75 37.48 38.48 38.33 38.92 38.67 37.07 34.82 34.31 33.30 32.67 32.66 33.01 32.18 31.02 30.24 28.40 27.35 26.35 25.80 26.08 26.49 26.14 26.02 26.30 26.49 26.45 28.12
25.69 23.61 23.76 22.19 21.80 18.96 34.98 32.61 29.18 33.97 34.51 35.64 35.13 36.23 35.16 35.37 35.81 35.96 36.45 36.08 36.84 36.57 32.26 30.90 30.23 28.77 29.28 30.58 31.31 29.97 24.76 24.43 24.36 24.56 24.04 23.25 23.69 24.96 24.97 23.65 25.11 25.37 26.23 26.62
24.78 28.88 24.08 27.01 25.31 33.57 35.54 34.49 36.38 37.06 36.31 34.85 35.67 35.85 36.05 35.40 33.92 34.83 34.77 34.66 34.78 34.44 31.61 30.01 27.34 25.64 24.28 25.69 28.19 23.36 21.84 22.10 21.51 20.63 20.04 20.15 21.54 23.40 24.34 24.67 24.06 23.77 24.76 25.64
28.46 31.73 26.84 28.55 31.56 32.76 33.12 34.58 35.43 35.69 35.32 36.36 36.55 36.38 35.90 34.82 34.24 32.63 32.09 32.15 31.53 30.03 28.40 26.85 24.19 21.91 20.24 19.32 20.09 18.96 19.51 19.62 18.39 18.07 17.90 18.81 19.65 22.15 22.48 22.87 23.42 23.14 22.55 22.69
29.20 30.31 26.61 26.63 29.14 30.18 31.99 32.29 34.95 34.45 34.57 34.03 33.00 34.21 34.00 33.14 32.33 31.83 31.16 31.29 30.33 28.65 26.21 23.95 21.94 19.97 17.10 15.84 14.22 13.97 15.26 15.78 17.33 17.13 17.73 18.00 20.25 20.73 20.47 20.35 20.95 21.06 22.07 21.56
28.72 27.44 26.26 24.87 31.35 31.31 31.70 31.61 32.37 32.40 32.49 33.07 32.39 31.79 31.55 32.48 31.62 30.97 30.30 29.66 28.04 23.38 21.42 20.26 18.54 15.73 13.16 11.64 10.16 8.67 8.88 13.83 16.98 16.65 17.44 17.54 18.38 17.86 18.33 18.40 18.67 22.95 22.42 22.84

GFSCGP_sfc_wetblb_201.txt.gz
Wetbulb
44.31 39.06 36.03 39.46 40.12 39.50 37.52 34.92 34.12 37.31 41.98 39.46 38.56 39.11 41.21 43.21 43.16 43.73 44.49 45.25 46.58 47.43 48.90 50.09 50.55 50.27 50.48 51.75 52.19 53.26 54.16 58.32 59.94 59.37 60.06 60.62 61.35 61.76 61.26 62.41 62.72 63.14 63.18 63.79
38.35 33.91 40.73 42.89 43.25 40.81 38.32 35.01 33.32 38.06 41.26 38.81 36.08 36.17 39.26 40.57 40.72 41.64 42.05 42.59 42.77 43.69 45.39 46.13 46.64 46.49 48.23 50.32 51.39 51.60 52.71 53.20 56.71 59.53 59.34 60.13 60.05 60.73 62.61 63.19 62.83 63.04 62.72 62.65
35.86 38.33 42.64 40.43 39.37 39.28 38.47 36.18 35.47 34.64 38.29 38.72 36.13 32.55 35.52 39.01 41.23 42.05 43.01 42.49 43.27 43.69 44.08 44.29 45.45 46.86 46.85 47.36 47.78 50.37 51.83 52.84 53.95 56.01 57.93 58.37 58.65 58.77 59.03 60.38 61.54 62.35 62.49 62.16
36.64 40.71 39.41 38.12 37.62 40.20 35.44 40.68 39.69 37.64 33.15 27.31 34.35 23.55 31.67 35.37 37.26 38.83 40.71 41.04 41.71 42.68 42.39 43.74 43.72 43.72 44.16 45.46 46.94 48.65 50.02 51.29 52.96 53.44 55.53 56.66 56.43 55.95 57.43 59.01 60.03 61.08 61.94 61.54
35.28 36.38 36.22 36.54 37.61 40.71 36.44 40.05 38.72 36.99 33.36 29.47 28.08 25.07 29.05 34.14 34.68 35.91 37.52 38.53 40.18 42.02 43.06 42.86 43.03 44.59 44.58 46.55 46.94 47.81 49.34 49.98 50.70 51.46 52.17 53.54 54.87 56.22 57.11 57.77 58.50 59.19 60.48 61.16
37.23 41.90 38.95 38.46 39.99 39.96 40.56 37.53 37.67 36.50 31.40 18.96 28.06 26.02 23.87 30.95 34.66 36.88 38.94 39.68 41.67 41.65 42.58 43.28 43.90 45.76 46.41 46.30 46.01 47.03 49.43 50.27 51.91 51.29 50.85 51.96 52.86 54.29 54.79 55.39 55.81 56.31 57.03 55.94
35.98 36.58 40.44 41.55 36.89 39.60 38.68 33.63 24.30 21.87 18.38 16.58 28.09 25.69 27.18 35.24 37.66 39.13 40.09 40.28 40.19 40.93 41.98 42.63 43.38 44.69 44.69 44.54 44.06 44.60 44.46 44.23 45.70 46.50 47.09 48.72 50.88 52.72 50.34 48.75 48.88 48.93 49.24 48.65
27.82 26.42 36.72 40.64 37.51 34.76 35.33 33.58 24.88 13.40 19.09 22.07 28.63 24.06 30.17 36.72 38.97 40.46 40.95 41.60 40.78 39.88 42.92 43.06 43.51 43.44 43.14 42.96 42.56 42.59 42.72 42.86 44.01 44.74 44.73 45.23 46.36 46.26 46.71 46.78 46.61 46.68 47.26 46.28
28.60 28.50 38.34 39.49 39.84 38.70 34.73 31.32 36.15 27.58 20.86 19.67 23.65 29.22 35.28 37.62 37.95 38.71 39.19 39.99 40.76 41.70 42.89 42.95 42.58 42.30 41.91 41.24 41.19 41.65 41.81 41.91 42.55 43.06 42.89 42.70 43.48 44.26 44.36 44.79 44.89 44.09 44.63 45.67
33.77 26.99 35.15 37.48 39.57 38.97 36.63 38.40 29.43 27.82 15.81 15.56 21.44 22.75 25.60 32.05 35.47 37.33 37.63 37.83 39.00 40.30 42.36 43.15 42.71 41.72 40.92 40.32 40.66 40.90 41.40 41.15 41.52 41.66 41.76 41.78 41.80 42.54 42.79 42.55 41.97 42.28 42.79 43.23
35.28 31.71 30.16 35.98 34.13 33.28 34.26 32.82 33.77 32.33 27.68 22.19 19.13 22.54 32.45 33.63 35.57 36.14 37.39 39.40 38.84 39.03 40.29 42.73 42.72 42.17 41.49 40.42 40.01 39.94 40.12 40.27 40.21 40.85 40.92 40.45 40.42 41.05 41.32 40.95 41.07 41.44 41.99 42.28
36.17 33.48 26.65 30.60 35.11 38.21 36.92 33.84 33.74 26.09 24.67 25.80 26.06 24.35 36.20 36.29 37.37 38.48 38.66 40.26 40.51 40.36 40.66 41.12 42.61 41.01 39.96 39.58 39.18 39.21 39.17 39.31 39.46 39.69 39.47 39.41 39.86 39.91 39.68 39.74 40.19 40.84 40.53 41.36
36.52 31.94 25.27 27.57 31.38 33.99 33.19 35.14 35.94 33.86 29.82 25.17 21.96 24.35 36.61 36.34 36.92 37.97 38.77 39.30 40.69 39.86 39.43 41.04 41.38 41.02 40.04 39.29 38.74 38.43 38.49 38.75 38.97 39.08 38.82 38.53 38.53 38.61 38.49 38.83 39.43 40.01 40.04 40.17
39.77 31.73 27.35 23.16 26.08 31.13 29.51 33.10 35.08 34.38 27.33 26.68 27.40 26.89 32.87 35.45 35.97 36.01 36.15 37.51 38.95 39.79 40.65 39.65 39.84 41.10 41.37 40.44 39.08 38.08 37.59 37.94 37.91 37.75 37.64 36.98 37.07 37.68 37.82 38.47 38.66 38.93 39.20 38.84
37.71 26.82 30.05 31.25 32.01 32.53 29.81 31.22 33.42 32.09 32.78 28.00 30.97 30.18 34.35 35.00 36.05 36.16 38.22 38.87 38.93 40.13 40.34 40.30 40.35 40.59 40.00 41.06 39.67 38.40 37.62 37.41 37.11 36.70 36.72 36.76 37.14 37.69 37.94 37.84 37.79 37.86 37.90 37.82
38.15 28.96 29.95 23.52 31.95 32.12 29.72 31.58 33.60 34.02 34.22 33.21 32.90 31.50 36.79 37.42 38.13 36.96 38.41 38.14 38.66 39.41 40.37 40.63 40.88 40.62 40.44 41.00 41.01 39.52 38.02 37.43 36.72 36.12 36.30 36.83 36.73 36.86 36.59 36.36 36.06 36.06 36.13 36.42
33.99 30.83 26.19 21.89 28.68 27.21 23.57 28.55 30.67 32.51 35.47 34.41 30.07 35.20 37.43 36.29 37.45 38.09 37.87 38.68 38.73 38.92 38.84 39.34 39.84 40.22 40.16 40.10 41.61 39.95 39.42 37.46 36.80 36.09 36.39 36.12 35.80 35.09 34.81 34.28 34.33 33.77 33.92 34.10
30.88 31.33 30.15 19.97 20.00 18.67 27.79 34.20 34.87 32.59 34.05 35.57 36.35 35.61 36.97 38.34 38.93 38.34 39.37 38.91 39.03 39.37 39.44 39.05 38.88 39.16 39.66 39.70 40.82 39.94 37.55 36.54 35.67 35.12 35.22 34.64 33.54 33.04 32.00 32.44 32.00 31.91 31.13 30.99
34.61 31.52 27.09 23.91 20.53 23.97 26.72 29.89 31.24 30.07 30.96 35.72 33.84 36.16 37.37 37.07 34.49 35.83 39.21 39.10 39.42 39.39 38.97 38.59 38.72 39.19 38.38 38.10 38.80 37.88 35.07 34.49 33.89 33.60 32.91 31.56 30.97 30.17 29.58 29.20 28.88 28.99 28.31 28.60
34.53 35.00 29.02 26.14 21.68 18.15 27.72 31.73 33.75 33.51 24.82 34.56 36.13 36.32 35.93 34.32 28.39 33.04 36.52 38.19 38.61 38.87 39.02 37.25 35.96 35.82 35.20 34.91 34.52 34.29 32.93 31.91 31.75 31.69 30.60 29.33 29.04 28.53 27.81 27.86 27.52 27.48 27.69 28.67
28.90 30.06 26.55 26.16 23.05 19.13 29.45 31.43 33.78 22.11 25.54 33.88 34.79 34.91 33.83 32.01 34.36 35.70 37.58 36.04 37.25 37.35 36.03 34.79 32.67 32.97 31.59 31.70 32.31 32.42 31.19 31.13 30.41 28.90 27.40 26.55 26.96 27.08 26.63 26.38 26.36 26.62 26.91 28.37
26.70 26.03 26.15 26.87 22.94 19.86 31.87 30.18 28.01 32.82 32.57 34.04 34.01 34.52 34.19 34.93 35.68 35.80 35.84 35.18 35.12 34.54 33.88 32.60 31.58 30.64 29.40 30.14 31.13 30.64 28.95 26.01 25.79 25.39 24.60 23.73 23.70 25.73 25.57 24.82 24.98 25.58 27.28 28.63
25.08 28.81 25.66 27.90 26.70 32.02 33.48 32.29 34.26 35.03 34.26 34.11 34.77 35.02 35.47 34.22 33.85 34.55 33.83 33.85 33.20 33.19 33.15 31.08 29.47 27.41 25.05 25.40 28.45 25.62 22.86 23.27 22.23 21.15 20.35 20.63 21.78 23.28 23.99 23.79 24.77 25.91 26.74 25.56
29.30 31.33 29.21 29.35 32.53 31.43 31.98 33.21 34.29 35.12 34.83 35.17 35.14 34.76 34.37 34.01 33.01 32.34 31.96 31.10 30.74 31.16 30.51 28.26 25.83 23.27 21.68 18.88 20.53 19.71 20.58 19.86 17.87 18.32 18.03 18.68 19.63 19.99 20.99 23.21 24.35 23.30 22.61 21.37
28.55 29.87 27.56 27.30 28.45 29.10 31.73 32.31 33.97 34.02 33.38 31.77 31.56 33.52 33.96 32.84 32.03 31.12 30.12 29.93 29.85 29.81 28.07 24.28 22.50 20.68 17.18 15.42 14.17 13.56 15.28 15.90 16.81 16.64 17.41 17.94 18.86 18.90 20.03 20.92 21.96 21.46 21.84 22.06
28.11 27.38 27.02 25.06 30.26 31.40 31.97 32.34 32.46 31.05 31.37 32.13 31.24 30.57 31.58 31.94 31.45 30.68 29.55 28.96 28.34 23.93 20.76 19.30 17.36 15.55 12.69 11.27 9.30 7.01 6.83 12.53 14.97 15.44 15.90 16.34 16.76 18.71 19.73 18.97 20.27 24.37 24.29 24.54

GFSCGP_sfc_wetblb_207.txt.gz
Wetbulb
43.99 37.99 35.99 38.38 38.70 37.04 37.28 34.08 32.82 34.00 39.92 38.29 37.77 38.91 40.94 42.81 40.89 40.92 41.49 42.53 43.96 44.29 45.37 47.07 47.09 45.96 47.56 51.91 56.61 57.66 58.54 60.08 61.27 59.64 58.98 58.85 60.37 60.30 60.61 60.80 61.22 61.29 62.09 61.53
38.41 34.13 37.90 40.88 40.32 37.46 36.50 33.30 31.43 36.36 39.31 36.86 34.06 35.82 38.37 39.29 39.66 40.97 40.98 41.32 43.16 43.36 43.81 44.96 44.73 43.46 45.67 45.61 46.51 48.62 54.12 58.12 60.32 61.22 59.72 59.83 59.46 59.27 59.45 60.39 60.23 60.64 60.72 60.91
34.44 35.66 40.90 39.93 38.79 37.11 35.28 33.48 32.57 33.48 36.39 35.70 32.14 30.52 33.22 35.60 37.87 39.49 40.45 40.29 41.38 43.04 43.66 43.50 43.76 43.22 43.28 44.37 45.18 47.43 48.09 49.10 53.00 59.20 58.50 57.79 58.37 57.31 58.05 58.71 59.42 60.72 60.91 60.76
36.14 39.55 38.26 37.54 36.99 38.52 32.72 38.06 37.08 35.68 32.10 27.51 31.32 22.14 29.24 31.58 34.13 35.58 36.95 37.83 38.86 39.70 40.05 41.34 41.90 41.13 42.50 44.37 45.77 46.33 47.61 48.48 49.72 50.97 55.81 56.28 58.10 57.62 56.87 58.11 58.96 59.72 60.39 60.57
33.47 34.71 35.99 35.71 36.87 39.72 36.09 39.33 37.25 34.58 31.04 28.54 26.57 24.84 28.23 30.52 32.27 34.90 34.75 36.96 36.07 38.41 39.21 40.96 41.72 43.07 43.82 44.47 44.31 45.89 47.46 49.35 50.39 49.11 49.93 52.23 53.85 55.41 55.76 56.32 56.96 57.24 57.80 58.50
35.75 40.52 38.11 37.62 38.79 39.78 39.93 37.09 36.21 34.25 28.78 20.15 27.12 26.59 24.01 28.60 33.54 32.81 35.72 36.59 38.72 39.45 39.86 40.94 42.69 44.26 43.71 42.94 42.49 43.55 45.14 44.83 46.41 47.65 48.69 48.85 50.61 52.18 53.48 54.15 54.56 54.89 53.37 51.48
33.81 34.70 39.20 39.61 35.95 38.57 37.57 33.51 24.29 23.47 21.11 20.02 24.86 23.83 26.15 32.14 33.36 34.94 37.56 37.34 37.61 39.30 40.26 41.19 42.25 43.23 42.71 42.28 41.76 42.57 42.87 42.95 43.87 44.67 44.98 46.18 49.28 50.61 52.37 53.14 53.51 52.20 49.06 47.72
28.55 25.88 35.29 38.69 36.16 33.84 34.15 32.83 24.52 17.64 15.67 19.86 26.34 22.58 28.46 33.52 36.81 37.71 39.74 39.57 38.57 37.81 39.97 40.56 42.34 42.43 42.08 41.50 41.37 41.28 41.46 41.81 42.25 42.78 42.89 43.87 45.56 47.02 47.92 48.91 49.53 49.30 47.26 45.95
28.24 27.97 36.58 37.87 38.70 38.13 34.09 29.25 33.23 25.18 18.51 19.68 22.91 26.59 32.35 34.59 35.20 35.51 37.69 38.74 39.21 39.74 40.55 40.95 41.65 41.92 41.26 40.55 40.29 40.19 40.54 40.71 41.22 41.54 41.74 42.18 43.15 44.33 44.19 44.36 44.90 44.35 44.14 44.40
33.62 27.13 33.91 36.31 38.03 37.54 34.78 37.25 28.48 26.50 13.74 14.35 20.13 21.84 25.21 30.16 33.33 34.80 35.57 37.24 38.07 39.74 40.86 41.50 41.42 40.82 40.26 39.53 39.27 39.31 39.68 39.72 40.11 40.34 40.21 40.50 40.88 41.72 41.88 42.29 41.70 41.62 41.71 41.97
36.44 32.06 30.73 35.48 32.58 31.42 32.90 31.43 32.01 30.85 25.70 18.90 15.74 21.41 28.48 30.55 33.86 34.84 36.24 37.60 38.35 39.80 41.13 41.59 41.47 41.02 40.20 39.24 38.59 38.71 38.72 39.00 39.23 39.45 39.51 39.14 39.42 39.80 39.95 39.83 39.88 40.12 40.59 40.66
37.21 33.05 27.96 30.28 33.60 35.50 35.59 32.55 32.39 24.60 22.07 24.22 24.61 23.28 32.91 33.47 33.26 35.44 35.90 37.64 36.94 37.33 38.92 39.77 41.13 40.90 40.04 39.35 38.60 38.25 38.21 38.23 38.91 38.91 38.86 38.72 38.84 38.55 38.28 38.28 38.81 39.43 39.35 39.82
36.53 32.35 22.63 24.09 31.18 33.04 31.85 33.37 33.98 31.37 29.63 24.66 21.70 22.96 34.51 34.01 34.18 35.68 36.15 36.14 37.71 37.48 37.64 39.12 39.13 39.68 39.82 39.18 38.73 38.23 37.64 37.71 38.17 37.90 37.75 37.47 37.46 37.48 37.29 37.49 38.10 38.58 38.60 38.72
40.09 33.03 28.04 23.74 26.36 31.14 30.02 32.50 34.01 32.44 26.03 26.08 26.13 25.25 30.42 33.12 34.08 35.02 36.04 36.56 37.42 39.11 39.80 38.82 38.52 38.79 39.07 39.93 39.80 39.37 38.74 37.44 37.53 37.14 36.88 36.43 36.30 36.84 36.78 37.11 37.41 37.73 37.94 37.80
35.23 29.06 30.87 31.33 30.95 31.01 30.79 31.85 33.21 31.44 32.10 26.79 29.34 28.30 32.10 33.94 34.58 36.11 35.72 36.78 37.49 38.19 38.43 38.55 38.20 37.96 37.71 38.05 38.66 39.38 38.99 38.05 36.99 36.56 36.33 36.44 36.54 36.67 36.71 36.81 37.04 37.34 37.34 37.43
35.17 23.82 26.97 22.51 30.66 30.98 28.13 30.60 32.69 33.41 33.55 32.32 32.21 30.39 33.87 33.11 35.45 34.73 36.04 36.19 36.79 37.66 38.29 38.39 38.50 38.35 38.38 38.22 38.08 38.78 39.36 38.80 36.78 36.01 36.08 36.23 35.89 35.81 35.95 36.07 35.79 35.68 35.33 35.56
31.65 24.26 23.57 17.22 26.62 30.13 25.79 29.51 30.20 31.54 34.62 33.92 29.59 35.00 36.01 35.63 35.78 35.75 36.21 37.59 37.50 37.66 37.96 37.99 38.19 38.36 37.69 37.62 38.24 38.15 39.06 38.45 36.45 36.12 36.02 35.65 35.40 35.02 35.03 34.97 34.42 34.02 33.91 34.26
30.28 30.16 27.85 23.41 22.39 17.57 29.15 32.78 34.32 32.70 34.37 34.88 35.58 35.62 36.75 38.56 39.99 38.63 38.84 38.27 37.77 37.84 38.15 38.15 37.70 37.15 37.39 37.97 37.58 37.10 37.24 37.48 36.22 35.54 34.94 34.64 34.19 33.95 33.38 32.99 32.58 32.11 31.96 32.36
33.59 28.04 20.14 20.71 15.48 24.67 26.90 30.21 30.15 30.15 30.98 35.76 34.88 36.83 37.90 36.31 35.18 36.01 38.80 38.14 38.86 38.38 38.40 37.67 37.27 37.35 37.09 35.47 34.22 34.10 34.30 33.82 33.42 33.32 32.80 32.69 32.63 32.41 31.78 31.30 30.81 29.93 29.42 29.33
32.82 32.79 26.77 22.32 12.99 15.04 24.93 29.49 32.44 34.50 25.92 35.52 35.69 36.02 35.31 33.44 30.60 36.04 38.55 37.51 36.87 37.08 36.23 36.12 35.65 34.92 33.89 32.00 31.64 32.43 32.21 31.75 31.79 31.91 32.18 31.70 31.46 31.34 30.31 29.98 28.84 28.09 28.12 28.75
25.72 27.39 24.23 22.90 20.06 19.11 28.92 30.90 33.90 23.56 25.89 31.51 34.04 35.58 33.48 32.38 36.52 36.90 35.37 34.95 35.15 35.46 35.54 34.78 33.42 33.24 31.93 30.55 30.63 31.29 30.68 30.72 30.24 30.54 29.59 28.65 29.14 29.27 28.89 27.95 26.54 26.93 27.09 28.10
22.75 22.40 22.46 24.59 21.33 18.11 29.47 29.03 28.13 32.70 31.39 31.03 30.79 32.27 32.85 34.21 34.36 33.89 33.62 33.55 34.73 34.73 34.16 33.49 32.50 31.98 30.06 28.94 29.24 29.37 29.01 27.76 27.01 26.93 26.07 23.92 23.59 26.29 26.30 25.01 24.22 25.11 27.02 26.70
18.80 25.05 21.00 24.94 24.74 31.99 31.44 31.64 33.48 32.82 32.20 31.83 31.83 32.10 32.34 31.41 31.19 32.05 32.23 32.09 32.35 31.88 31.67 31.39 30.75 29.85 27.87 25.94 26.08 25.21 26.69 25.07 22.50 20.89 19.81 19.70 21.53 23.37 23.68 23.71 23.68 23.20 24.64 24.50
26.02 28.67 25.62 27.03 29.88 32.31 33.73 33.40 34.49 33.95 33.54 34.23 33.64 33.41 32.72 32.40 31.86 31.74 32.02 31.51 31.29 30.81 29.88 29.17 28.36 25.95 26.73 21.81 21.49 19.98 22.23 19.97 18.37 18.15 17.18 17.67 19.50 19.71 20.21 22.31 22.69 22.52 21.84 21.96
25.80 28.21 25.21 24.92 28.87 30.18 31.76 32.94 35.01 34.57 33.17 32.93 32.13 31.71 31.79 31.76 30.86 30.95 30.56 30.36 29.94 28.98 26.97 24.59 23.01 22.99 21.10 16.48 14.18 11.88 14.62 14.38 16.25 15.91 16.28 16.99 18.18 18.26 18.09 19.32 19.08 20.32 19.85 21.55
27.57 26.93 27.24 25.65 31.08 32.49 33.03 35.02 34.51 32.45 32.20 32.06 30.98 30.21 30.49 31.83 30.89 29.22 29.60 29.36 28.40 24.19 21.57 21.46 20.09 17.66 15.07 11.93 10.06 7.27 4.90 10.33 13.85 14.91 15.28 14.85 16.50 16.83 18.71 19.95 20.23 27.05 26.68 26.37